Satellite: NOAA-12 Catalog number: 21263 Epoch time: 13339.52669806 Element set: 72 Inclination: 098.6833 deg RA of node: 003.4317 deg Eccentricity: 0.0014876 Arg of perigee: 083.5610 deg Mean anomaly: 081.0677 deg Mean motion: 14.25605170 rev/day Decay rate: 7.7e-07 rev/day^2 Epoch rev: 17296 Checksum: 301
Satellite: MET-3/5 Catalog number: 21655 Epoch time: 13339.48045007 Element set: 848 Inclination: 082.5553 deg RA of node: 133.2844 deg Eccentricity: 0.0014046 Arg of perigee: 064.7800 deg Mean anomaly: 295.4777 deg Mean motion: 13.17049608 rev/day Decay rate: 1.00e-06 rev/day^2 Epoch rev: 7248 Checksum: 299
Satellite: MET-2/21 Catalog number: 22782 Epoch time: 13339.13260712 Element set: 914 Inclination: 082.5490 deg RA of node: 327.2762 deg Eccentricity: 0.0023715 Arg of perigee: 090.5054 deg Mean anomaly: 317.0622 deg Mean motion: 13.83717082 rev/day Decay rate: 5.8e-07 rev/day^2 Epoch rev: 2328 Checksum: 279
Satellite: OKEAN-4 Catalog number: 23317 Epoch time: 13338.84786596 Element set: 394 Inclination: 082.5398 deg RA of node: 250.0212 deg Eccentricity: 0.0021524 Arg of perigee: 026.9556 deg Mean anomaly: 037.8482 deg Mean motion: 14.84848365 rev/day Decay rate: 1.280e-05 rev/day^2 Epoch rev: 3426 Checksum: 319
Satellite: NOAA-14 Catalog number: 23455 Epoch time: 13339.47793534 Element set: 548 Inclination: 098.7933 deg RA of node: 061.2440 deg Eccentricity: 0.0008952 Arg of perigee: 225.5622 deg Mean anomaly: 262.7337 deg Mean motion: 14.13934994 rev/day Decay rate: -3.7e-07 rev/day^2 Epoch rev: 97657 Checksum: 339
Satellite: NOAA-15 Catalog number: 25338 Epoch time: 13339.85043488 Element set: 979 Inclination: 098.7386 deg RA of node: 329.2525 deg Eccentricity: 0.0010827 Arg of perigee: 354.7520 deg Mean anomaly: 005.4016 deg Mean motion: 14.25303301 rev/day Decay rate: 2.32e-06 rev/day^2 Epoch rev: 80930 Checksum: 299
Satellite: RESURS Catalog number: 25394 Epoch time: 13338.98993025 Element set: 532 Inclination: 098.3863 deg RA of node: 306.8376 deg Eccentricity: 0.0002535 Arg of perigee: 105.9439 deg Mean anomaly: 299.9997 deg Mean motion: 14.24350711 rev/day Decay rate: 6.3e-07 rev/day^2 Epoch rev: 80067 Checksum: 334
Satellite: FENGYUN1 Catalog number: 25730 Epoch time: 13339.55090939 Element set: 27 Inclination: 098.8958 deg RA of node: 297.1427 deg Eccentricity: 0.0025876 Arg of perigee: 294.7367 deg Mean anomaly: 197.2633 deg Mean motion: 14.11046539 rev/day Decay rate: 2.317e-05 rev/day^2 Epoch rev: 75020 Checksum: 331
Satellite: OKEAN-0 Catalog number: 25860 Epoch time: 13338.82615765 Element set: 113 Inclination: 098.0160 deg RA of node: 299.2311 deg Eccentricity: 0.0001062 Arg of perigee: 076.7555 deg Mean anomaly: 339.9079 deg Mean motion: 14.74823322 rev/day Decay rate: 6.85e-06 rev/day^2 Epoch rev: 77350 Checksum: 306
Satellite: NOAA-16 Catalog number: 26536 Epoch time: 13339.76866145 Element set: 468 Inclination: 099.0202 deg RA of node: 034.0310 deg Eccentricity: 0.0010717 Arg of perigee: 016.5539 deg Mean anomaly: 343.6460 deg Mean motion: 14.12953036 rev/day Decay rate: 2.91e-06 rev/day^2 Epoch rev: 68080 Checksum: 291
Satellite: NOAA-17 Catalog number: 27453 Epoch time: 13339.84961375 Element set: 373 Inclination: 098.3107 deg RA of node: 344.8089 deg Eccentricity: 0.0012306 Arg of perigee: 026.3544 deg Mean anomaly: 333.8731 deg Mean motion: 14.24652277 rev/day Decay rate: 1.84e-06 rev/day^2 Epoch rev: 59516 Checksum: 321
Satellite: NOAA-18 Catalog number: 28654 Epoch time: 13339.84774971 Element set: 861 Inclination: 099.1229 deg RA of node: 310.7357 deg Eccentricity: 0.0015131 Arg of perigee: 086.0492 deg Mean anomaly: 274.2880 deg Mean motion: 14.11901881 rev/day Decay rate: 9.7e-07 rev/day^2 Epoch rev: 44028 Checksum: 323
Satellite: NOAA-19 Catalog number: 33591 Epoch time: 13339.83444830 Element set: 35 Inclination: 098.9215 deg RA of node: 280.6877 deg Eccentricity: 0.0013626 Arg of perigee: 308.6049 deg Mean anomaly: 051.4385 deg Mean motion: 14.11593909 rev/day Decay rate: 1.56e-06 rev/day^2 Epoch rev: 24871 Checksum: 324
/EX SB KEPS @ AMSAT $ORB13339.M Orbital Elements 13339.MISC
HR AMSAT ORBITAL ELEMENTS FOR MANNED AND MISCELLANEOUS SATELLITES FROM WA5QGD FORT WORTH,TX December 5, 2013 BID: ORB13339.M TO ALL RADIO AMATEURS BT
Satellite: HUBBLE Catalog number: 20580 Epoch time: 13338.16132502 Element set: 387 Inclination: 028.4695 deg RA of node: 238.0919 deg Eccentricity: 0.0003301 Arg of perigee: 006.1787 deg Mean anomaly: 147.6659 deg Mean motion: 15.04291874 rev/day Decay rate: 2.445e-05 rev/day^2 Epoch rev: 9531 Checksum: 293
Satellite: ISS Catalog number: 25544 Epoch time: 13339.60554637 Element set: 171 Inclination: 051.6493 deg RA of node: 339.0083 deg Eccentricity: 0.0001280 Arg of perigee: 103.1709 deg Mean anomaly: 359.7660 deg Mean motion: 15.50769926 rev/day Decay rate: 1.2995e-04 rev/day^2 Epoch rev: 86129 Checksum: 315
Satellite: CO-58 Catalog number: 28895 Epoch time: 13338.79329965 Element set: 637 Inclination: 097.8488 deg RA of node: 185.6203 deg Eccentricity: 0.0016242 Arg of perigee: 263.1758 deg Mean anomaly: 096.7596 deg Mean motion: 14.61384316 rev/day Decay rate: 9.27e-06 rev/day^2 Epoch rev: 43185 Checksum: 373
Satellite: FALCON Catalog number: 30776 Epoch time: 13338.18167392 Element set: 751 Inclination: 035.4295 deg RA of node: 237.6351 deg Eccentricity: 0.0002388 Arg of perigee: 301.1708 deg Mean anomaly: 188.2208 deg Mean motion: 15.12507705 rev/day Decay rate: 6.396e-05 rev/day^2 Epoch rev: 37115 Checksum: 298
Satellite: MAST Catalog number: 31126 Epoch time: 13338.81185366 Element set: 916 Inclination: 097.8955 deg RA of node: 325.1355 deg Eccentricity: 0.0091738 Arg of perigee: 240.1059 deg Mean anomaly: 240.0674 deg Mean motion: 14.54829586 rev/day Decay rate: 6.45e-06 rev/day^2 Epoch rev: 35212 Checksum: 313
Satellite: CAPE1 Catalog number: 31130 Epoch time: 13338.96146138 Element set: 920 Inclination: 097.9149 deg RA of node: 321.7276 deg Eccentricity: 0.0098713 Arg of perigee: 256.6823 deg Mean anomaly: 102.3352 deg Mean motion: 14.53833889 rev/day Decay rate: 8.96e-06 rev/day^2 Epoch rev: 35158 Checksum: 325
Satellite: COMPASS Catalog number: 32787 Epoch time: 13339.18662122 Element set: 796 Inclination: 097.7305 deg RA of node: 033.1856 deg Eccentricity: 0.0015785 Arg of perigee: 101.4788 deg Mean anomaly: 258.8201 deg Mean motion: 14.86340953 rev/day Decay rate: 2.383e-05 rev/day^2 Epoch rev: 30335 Checksum: 315
Satellite: AAUSAT2 Catalog number: 32788 Epoch time: 13338.80196370 Element set: 780 Inclination: 097.7314 deg RA of node: 033.5883 deg Eccentricity: 0.0015232 Arg of perigee: 101.5351 deg Mean anomaly: 258.7576 deg Mean motion: 14.86878392 rev/day Decay rate: 3.184e-05 rev/day^2 Epoch rev: 30334 Checksum: 320
Satellite: DO-64 Catalog number: 32789 Epoch time: 13339.76673617 Element set: 818 Inclination: 097.7489 deg RA of node: 039.4061 deg Eccentricity: 0.0014394 Arg of perigee: 089.6623 deg Mean anomaly: 270.6747 deg Mean motion: 14.90193669 rev/day Decay rate: 7.416e-05 rev/day^2 Epoch rev: 30366 Checksum: 366
Satellite: CO-66 Catalog number: 32791 Epoch time: 13338.46998976 Element set: 774 Inclination: 097.7303 deg RA of node: 031.6108 deg Eccentricity: 0.0016336 Arg of perigee: 105.5572 deg Mean anomaly: 004.6163 deg Mean motion: 14.85312630 rev/day Decay rate: 1.959e-05 rev/day^2 Epoch rev: 30314 Checksum: 317
Satellite: RS-30 Catalog number: 32953 Epoch time: 13339.41818454 Element set: 440 Inclination: 082.5002 deg RA of node: 321.7059 deg Eccentricity: 0.0017709 Arg of perigee: 216.9122 deg Mean anomaly: 143.0738 deg Mean motion: 12.43040285 rev/day Decay rate: 1.0e-07 rev/day^2 Epoch rev: 25118 Checksum: 262
Satellite: METEOR-M Catalog number: 35865 Epoch time: 13339.57349876 Element set: 47 Inclination: 098.5802 deg RA of node: 027.5855 deg Eccentricity: 0.0001955 Arg of perigee: 318.0077 deg Mean anomaly: 042.0962 deg Mean motion: 14.21899920 rev/day Decay rate: -1.1e-07 rev/day^2 Epoch rev: 21882 Checksum: 319
Satellite: RS-38 Catalog number: 35869 Epoch time: 13339.22470158 Element set: 4 Inclination: 098.5742 deg RA of node: 027.1090 deg Eccentricity: 0.0004093 Arg of perigee: 308.0321 deg Mean anomaly: 052.0493 deg Mean motion: 14.22161490 rev/day Decay rate: 6.8e-07 rev/day^2 Epoch rev: 21880 Checksum: 278
Satellite: JUGNU Catalog number: 37839 Epoch time: 13339.15228302 Element set: 515 Inclination: 019.9631 deg RA of node: 350.8392 deg Eccentricity: 0.0019225 Arg of perigee: 007.2023 deg Mean anomaly: 049.4585 deg Mean motion: 14.12214919 rev/day Decay rate: 4.63e-06 rev/day^2 Epoch rev: 11109 Checksum: 278
Satellite: SRMSAT Catalog number: 37841 Epoch time: 13339.16028749 Element set: 514 Inclination: 019.9738 deg RA of node: 006.2334 deg Eccentricity: 0.0011895 Arg of perigee: 314.8656 deg Mean anomaly: 090.4694 deg Mean motion: 14.10273699 rev/day Decay rate: 4.29e-06 rev/day^2 Epoch rev: 11093 Checksum: 313
Satellite: RAX-2 Catalog number: 37853 Epoch time: 13339.45221356 Element set: 662 Inclination: 101.7028 deg RA of node: 272.5555 deg Eccentricity: 0.0227765 Arg of perigee: 255.7477 deg Mean anomaly: 216.3852 deg Mean motion: 14.85750089 rev/day Decay rate: 7.861e-05 rev/day^2 Epoch rev: 11385 Checksum: 328
Satellite: AUBIESAT Catalog number: 37854 Epoch time: 13338.44467134 Element set: 646 Inclination: 101.7066 deg RA of node: 272.3331 deg Eccentricity: 0.0226934 Arg of perigee: 256.7101 deg Mean anomaly: 228.1145 deg Mean motion: 14.86668755 rev/day Decay rate: 8.516e-05 rev/day^2 Epoch rev: 11373 Checksum: 306
